Regional Weather Roundup
Issued by NWS

Home | Current Version | Previous Version | Text Only | Print | Product List | Glossary On
Versions: 1 2 3 4 5 6 7 8 9 10 11 12 13 14 15 16 17 18 19 20 21 22 23 24 25 26 27
000
ASUS42 KTBW 132316
RWRFL
FLORIDA REGIONAL WEATHER ROUNDUP
NATIONAL WEATHER SERVICE TAMPA BAY RUSKIN FL
600 PM EST WED DEC 13 2017

NOTE: "FAIR" INDICATES FEW OR NO CLOUDS BELOW 12,000 FEET WITH NO
SIGNIFICANT WEATHER AND/OR OBSTRUCTIONS TO VISIBILITY.

FLZ001>010-012>015-112-114-115-140000-
PANHANDLE FLORIDA

CITY           SKY/WX    TMP DP  RH WIND       PRES   REMARKS
PENSACOLA      PTCLDY    53  34  48 SW8       30.04F
PENSACOLA NAS  MOCLDY    52  35  52 W3        30.04F
MILTON NAS     PTCLDY    48  34  58 SW3       30.03F
CRESTVIEW      PTCLDY    49  27  42 SW6       30.04F
DUKE FIELD     MOCLDY    51  30  44 SW5       30.03F
VALPARAISO     MOCLDY    53  37  53 W5        30.03F
MARY ESTHER    PTCLDY    55  38  53 SW5       30.02F
PANAMA CITY    FAIR      52  40  63 S3        30.04F
TYNDALL AFB    CLEAR     52  43  71 SW6       30.05F
APALACHICOLA   CLEAR     51  42  71 CALM      30.06F

STATION/POSITION SKY/WX   TEMP    WIND        PRES    WAVE   SWELL
                          AIR SEA DIR/SP/G            HT/PER HT/PER
                          (F)     (DEG/KT/KT) (MB)    (FT/S) (FT/S)
29.2N   88.2W              62 72  250/ 12/ 16 1017.5
28.8N   86.0W              63 74  250/ 10/ 14 1017.7F   3/ 6   2/ 6
PANAMA CITY BEAC           56 64              1017.7F
TOWER C                    56     260/  9/ 11 1018.5F

$$
FLZ011-016>038-118-127-128-134-139-239-140000-
NORTH FLORIDA

CITY           SKY/WX    TMP DP  RH WIND       PRES   REMARKS
MARIANNA       CLEAR     54  24  31 SW10      30.02S
TALLAHASSEE    PTCLDY    49  30  48 S7        30.04R
PERRY          CLEAR     46  28  49 SW5       30.06R WCI  44
LIVE OAK       PTCLDY    46  34  61 CALM      30.04S
CROSS CITY     CLEAR     48  26  42 SW6       30.11R
LAKE CITY      FAIR      46  30  53 CALM      30.02S
GAINESVILLE    CLEAR     47  29  49 W3        30.05F
WILLISTON      CLEAR     52  32  46 CALM      30.06R
PALATKA        FAIR      48  37  66 CALM      30.04R
MAYPORT NAS    PTCLDY    52  30  43 SW5       30.01F
JACKSONVILLE   PTCLDY    48  34  58 W3        30.01F
JAX NAS        PTCLDY    56  28  34 W6        30.02S
JAX CECIL      CLEAR     46  34  61 VRB3      30.02S
ST AUGUSTINE   CLEAR     52  34  50 W5        30.03S
PALM COAST     CLEAR     52  34  50 CALM      30.03S

STATION/POSITION SKY/WX   TEMP    WIND        PRES    WAVE   SWELL
                          AIR SEA DIR/SP/G            HT/PER HT/PER
                          (F)     (DEG/KT/KT) (MB)    (FT/S) (FT/S)
SHELL POINT      NOT AVBL
KEATON BEACH               53     240/ 12/ 13 1017.7R
CEDAR KEY                  53     270/  5/  7 1018.8R
FERNANDINA                 53 60              1017.0F
30.7N   81.3W                 62                N/A     1/ 5
MAYPORT                    55 62              1016.5F
31.4N   80.9W              51 60  190/ 12/ 14 1015.6F   1/ 9
ST AUGUSTINE               54 63  230/  2/  2 1017.2F

$$
FLZ040-043>046-052-053-057-058-063-144-140000-
INTERIOR CENTRAL FLORIDA

CITY           SKY/WX    TMP DP  RH WIND       PRES   REMARKS
OCALA          CLEAR     52  32  46 W9        30.06R
LEESBURG       CLEAR     58  31  35 W8        30.05S
SANFORD        CLEAR     56  26  31 SW6       30.04S
ORLANDO EXEC   CLEAR     59  26  28 NW5       30.05R
ORLANDO INTL   PTCLDY    57  26  30 W5        30.05S
KISSIMMEE      CLEAR     55  33  43 W5        30.06S
WINTER HAVEN   CLEAR     56  26  31 W6        30.07R
LAKELAND       CLEAR     55  27  33 CALM      30.07R
BARTOW         FAIR      55  32  41 W3        30.06S
SEBRING        FAIR      61  29  30 W3        30.07R

$$
FLZ041-047-054-059-064-141-147-140000-
EAST CENTRAL FLORIDA

CITY           SKY/WX    TMP DP  RH WIND       PRES   REMARKS
ORMOND BEACH   CLEAR     50  34  53 SW3       30.03S
DAYTONA BEACH  PTCLDY    52  36  54 CALM      30.03F
DELAND         CLEAR     55  30  38 SW5       30.03S
NEW SMYRNA BEA CLEAR     54  32  43 CALM      30.05S
JFK SPACE CTR  CLEAR     54  39  56 NW5       30.03S
TITUSVILLE     CLEAR     57  30  35 W5        30.05S
CAPE CANAVERAL CLEAR     55  37  51 CALM      30.03S
PATRICK AFB    CLEAR     57  33  40 W8        30.04S
MELBOURNE      CLEAR     58  31  35 W5        30.05S
VERO BEACH     CLEAR     57  36  45 W6        30.05S
FT PIERCE      CLEAR     51  38  60 CALM      30.05R
STUART         CLEAR     66  36  32 NW5       30.05S

STATION/POSITION SKY/WX   TEMP    WIND        PRES    WAVE   SWELL
                          AIR SEA DIR/SP/G            HT/PER HT/PER
                          (F)     (DEG/KT/KT) (MB)    (FT/S) (FT/S)
28.5N   80.2W              61 77  270/  8/ 14 1017.1R   4/ 9   3/ 9
TRIDENT PIER               59 68              1018.9R
28.4N   80.5W                 68                N/A     2/ 8
27.5N   80.2W                 70                N/A     4/10   2/11

$$
FLZ050-056-061-142-242-148-248-149-249-151-251-155-255-
160-260-140000-
WEST CENTRAL FLORIDA

CITY           SKY/WX    TMP DP  RH WIND       PRES   REMARKS
CRYSTAL RIVER  FAIR      46  34  61 CALM      30.08R
INVERNESS      FAIR      46  34  61 CALM      30.08R
BROOKSVILLE    CLEAR     48  31  51 W6        30.09R
CLEARWATER AIR FAIR      52  41  66 CALM      30.09R
ST PETE CLEARW PTCLDY    53  42  66 W6        30.09R
TAMPA INTL     PTCLDY    57  38  48 NW5       30.09R
TAMPA EXEC     CLEAR     52  30  43 CALM      30.09R
PLANT CITY     CLEAR     57  23  26 W5        30.09S
MACDILL AFB    CLEAR     54  41  62 N5        30.08R
PETER O KNIGHT   N/A     55  36  47 NW3       30.09S
ST PETERSBURG  CLEAR     58  43  57 NW5       30.07R
SARASOTA       CLEAR     53  46  77 NW8       30.07R
VENICE           N/A    N/A N/A N/A N5        30.09R

STATION/POSITION SKY/WX   TEMP    WIND        PRES    WAVE   SWELL
                          AIR SEA DIR/SP/G            HT/PER HT/PER
                          (F)     (DEG/KT/KT) (MB)    (FT/S) (FT/S)
27.3N   84.2W                 75                N/A     4/ 6
CLEARWATER BEACH           55 61              1019.1R
MIDDLE TAMPA BAY           58                 1018.6R
VENICE                     59 67  310/  8/ 10 1018.8R

$$
FLZ066-069-070-075>078-162-262-165-265-140000-
SOUTHWEST FLORIDA AND KEYS

CITY           SKY/WX    TMP DP  RH WIND       PRES   REMARKS
PUNTA GORDA    CLEAR     59  44  57 W7        30.08S
FT MYERS       CLEAR     60  47  61 NW9       30.07R
SOUTHWEST INTL CLEAR     59  45  59 CALM      30.07R
NAPLES         CLEAR     60  46  59 NW5       30.07R
MARCO ISLAND   CLEAR     60  48  64 NW3       30.08R
IMMOKALEE      FAIR      54  43  66 CALM      30.08R
MARATHON       CLEAR     62  42  47 NW6       30.07S
KEY WEST NAS   PTCLDY    62  55  77 N7        30.08R
KEY WEST INTL  CLEAR     63  54  72 N7        30.08S

STATION/POSITION SKY/WX   TEMP    WIND        PRES    WAVE   SWELL
                          AIR SEA DIR/SP/G            HT/PER HT/PER
                          (F)     (DEG/KT/KT) (MB)    (FT/S) (FT/S)
NAPLES                        69              1018.1R
DRY TORTUGAS               67      40/  7/  8 1018.5R
SAND KEY                   63                 1019.2R
MOLASSES REEF              63 77  330/  8/ 10 1018.3R

$$
FLZ067-068-071>074-168-172>174-140000-
SOUTHEAST FLORIDA

CITY           SKY/WX    TMP DP  RH WIND       PRES   REMARKS
W PALM BEACH   PTCLDY    59  41  51 W6        30.06R
BOCA RATON     CLEAR    N/A N/A N/A CALM      30.06R
FT LAUDER-EXEC CLEAR     60  38  43 NW3       30.06R
FT LAUDERDALE  PTCLDY    61  39  44 W7        30.05R
POMPANO BEACH  CLEAR     60  36  40 NW7       30.06R
PEMBROKE PINES CLEAR     60  38  43 NW5       30.07R
OPA LOCKA      CLEAR     60  35  39 NW7       30.07R
MIAMI          PTCLDY    63  34  33 NW5       30.06R
WEST KENDALL   CLEAR     54  41  61 NW5       30.07R
HOMESTEAD      CLEAR     59  42  54 W5        30.06R

STATION/POSITION SKY/WX   TEMP    WIND        PRES    WAVE   SWELL
                          AIR SEA DIR/SP/G            HT/PER HT/PER
                          (F)     (DEG/KT/KT) (MB)    (FT/S) (FT/S)
PORT EVERGLADES            63     330/  5/  7 1017.7R
VIRGINIA KEY               64 73              1017.4R
LAKE WORTH                 62 77              1018.6R
FOWEY ROCKS                65 76  300/ 10/ 11 1018.5R
SETTLEMENT POINT           66     340/  3/  6 1017.4R

$$





USA.gov is the U.S. government's official web portal to all federal, state and local government web resources and services.